Back to catalog

STARLINK-31263

AliveCommunicationsVLEO
NORAD 58832·PAYLOAD·🇺🇸 United States

Launched Jan 24, 2024 from Vandenberg Space Force Base

Loading…

Next Passes (next 24 hours)

TLE

FreshSource: CelesTrak SupGP

Epoch: Sep 14, 2026, 14:57 UTC

1 58832C 24017G   26257.62340278 -.00084073  00000+0 -24845-2 0  2579
2 58832  53.1587  32.9267 0001100  83.8779  52.5019 15.34426206    16

Track STARLINK-31263 in real time with AllMySat

Download on the App Store